Location: Unspecified
(43.4680°N, 87.1740°E)
Time: 21:28:29
(UTC+00:00)

Cosmos 405 - Pass Details

Date: 17 April 2021
Orbit: 448 x 459 km, 81.3° (Epoch: 12 May)

Event Time Altitude Azimuth Distance (km) Brightness Sun altitude
Rises 14:01:42 0° 182° (S) 2,440 6.4 -11.8°
Reaches altitude 10° 14:03:46 10° 179° (S) 1,575 5.4 -12.1°
Maximum altitude 14:07:10 65° 97° (E) 501 2.8 -12.7°
Drops below altitude 10° 14:10:37 10° 16° (NNE) 1,595 5.8 -13.2°
Sets 14:12:43 0° 13° (NNE) 2,475 6.9 -13.5°
